• In Netherlands
  • List of Countries
  • For 7 days
  • Water Temperature
  • Satellite Maps
  • Weather Map
  • Weather Widgets
  • user-avatar
    Login

    Hourly Weather Herāt

    Today, 29 June, Thursday

    Time Temperature Precipitation Wind Pressure Humidity
    00:00 +24°C° 0 mm 9 mps 676 mmHg 22%
    01:00 +24°C° 0 mm 8 mps 676 mmHg 22%
    02:00 +23°C° 0 mm 8 mps 675 mmHg 23%
    03:00 +23°C° 0 mm 7 mps 675 mmHg 24%
    04:00 +22°C° 0 mm 7 mps 675 mmHg 23%
    05:00 +23°C° 0 mm 7 mps 675 mmHg 22%
    06:00 +26°C° 0 mm 7 mps 676 mmHg 21%
    07:00 +27°C° 0 mm 8 mps 676 mmHg 20%
    08:00 +29°C° 0 mm 8 mps 676 mmHg 17%
    09:00 +32°C° 0 mm 8 mps 676 mmHg 15%
    10:00 +34°C° 0 mm 8 mps 676 mmHg 13%
    11:00 +35°C° 0 mm 9 mps 676 mmHg 12%
    12:00 +37°C° 0 mm 9 mps 676 mmHg 11%
    13:00 +39°C° 0 mm 9 mps 676 mmHg 11%
    14:00 +38°C° 0 mm 10 mps 676 mmHg 11%
    15:00 +38°C° 0 mm 10 mps 675 mmHg 11%
    16:00 +38°C° 0 mm 11 mps 675 mmHg 12%
    17:00 +37°C° 0 mm 10 mps 675 mmHg 13%
    18:00 +35°C° 0 mm 9 mps 675 mmHg 14%
    19:00 +33°C° 0 mm 9 mps 675 mmHg 15%
    20:00 +32°C° 0 mm 8 mps 675 mmHg 15%
    21:00 +31°C° 0 mm 8 mps 675 mmHg 15%
    22:00 +29°C° 0 mm 7 mps 675 mmHg 15%
    23:00 +28°C° 0 mm 7 mps 675 mmHg 15%

    Tomorrow, 30 June, Friday

    Time Temperature Precipitation Wind Pressure Humidity
    00:00 +28°C° 0 mm 6 mps 674 mmHg 15%
    01:00 +27°C° 0 mm 6 mps 674 mmHg 15%
    02:00 +26°C° 0 mm 5 mps 674 mmHg 15%
    03:00 +26°C° 0 mm 5 mps 673 mmHg 15%
    04:00 +25°C° 0 mm 5 mps 673 mmHg 15%
    05:00 +26°C° 0 mm 5 mps 674 mmHg 14%
    06:00 +28°C° 0 mm 6 mps 674 mmHg 12%
    07:00 +29°C° 0 mm 6 mps 675 mmHg 11%
    08:00 +32°C° 0 mm 7 mps 675 mmHg 10%
    09:00 +34°C° 0 mm 8 mps 675 mmHg 9%
    10:00 +35°C° 0 mm 8 mps 675 mmHg 7%
    11:00 +37°C° 0 mm 9 mps 675 mmHg 7%
    12:00 +38°C° 0 mm 9 mps 675 mmHg 6%
    13:00 +39°C° 0 mm 10 mps 675 mmHg 6%
    14:00 +39°C° 0 mm 10 mps 675 mmHg 6%
    15:00 +39°C° 0 mm 11 mps 674 mmHg 6%
    16:00 +38°C° 0 mm 11 mps 674 mmHg 7%
    17:00 +37°C° 0 mm 11 mps 674 mmHg 8%
    18:00 +36°C° 0 mm 10 mps 674 mmHg 9%
    19:00 +33°C° 0 mm 10 mps 674 mmHg 10%
    20:00 +32°C° 0 mm 9 mps 674 mmHg 11%
    21:00 +32°C° 0 mm 9 mps 675 mmHg 12%
    22:00 +31°C° 0 mm 9 mps 675 mmHg 13%
    23:00 +29°C° 0 mm 8 mps 675 mmHg 14%

    Day after tomorrow, 1 July, Saturday

    Time Temperature Precipitation Wind Pressure Humidity
    00:00 +28°C° 0 mm 8 mps 675 mmHg 16%
    01:00 +27°C° 0 mm 8 mps 675 mmHg 17%
    02:00 +27°C° 0 mm 7 mps 675 mmHg 18%
    03:00 +26°C° 0 mm 7 mps 675 mmHg 19%
    04:00 +26°C° 0 mm 7 mps 675 mmHg 21%
    05:00 +27°C° 0 mm 8 mps 675 mmHg 20%
    06:00 +28°C° 0 mm 9 mps 676 mmHg 19%
    07:00 +29°C° 0 mm 10 mps 676 mmHg 18%
    08:00 +31°C° 0 mm 11 mps 676 mmHg 17%
    09:00 +33°C° 0 mm 12 mps 677 mmHg 16%
    10:00 +34°C° 0 mm 13 mps 677 mmHg 14%
    11:00 +36°C° 0 mm 13 mps 677 mmHg 14%
    12:00 +36°C° 0 mm 13 mps 677 mmHg 13%
    13:00 +37°C° 0 mm 13 mps 677 mmHg 13%
    14:00 +37°C° 0 mm 13 mps 676 mmHg 13%
    15:00 +37°C° 0 mm 13 mps 676 mmHg 13%
    16:00 +37°C° 0 mm 13 mps 676 mmHg 13%
    17:00 +36°C° 0 mm 13 mps 676 mmHg 14%
    18:00 +34°C° 0 mm 12 mps 676 mmHg 15%
    19:00 +32°C° 0 mm 11 mps 676 mmHg 16%
    20:00 +32°C° 0 mm 11 mps 676 mmHg 17%
    21:00 +31°C° 0 mm 10 mps 676 mmHg 18%
    22:00 +29°C° 0 mm 10 mps 676 mmHg 19%
    23:00 +28°C° 0 mm 9 mps 676 mmHg 21%

    2 July, Sunday

    Time Temperature Precipitation Wind Pressure Humidity
    00:00 +28°C° 0 mm 9 mps 676 mmHg 22%
    01:00 +27°C° 0 mm 8 mps 675 mmHg 23%
    02:00 +27°C° 0 mm 8 mps 675 mmHg 24%
    03:00 +26°C° 0 mm 8 mps 675 mmHg 26%
    04:00 +26°C° 0 mm 8 mps 675 mmHg 27%
    05:00 +27°C° 0 mm 9 mps 675 mmHg 25%
    06:00 +28°C° 0 mm 10 mps 676 mmHg 24%
    07:00 +29°C° 0 mm 11 mps 676 mmHg 23%
    08:00 +31°C° 0 mm 12 mps 676 mmHg 21%
    09:00 +32°C° 0 mm 13 mps 677 mmHg 19%
    10:00 +34°C° 0 mm 13 mps 677 mmHg 17%
    11:00 +34°C° 0 mm 13 mps 676 mmHg 16%
    12:00 +36°C° 0 mm 13 mps 676 mmHg 15%
    13:00 +37°C° 0 mm 13 mps 676 mmHg 14%
    14:00 +37°C° 0 mm 13 mps 676 mmHg 14%
    15:00 +37°C° 0 mm 13 mps 675 mmHg 13%
    16:00 +37°C° 0 mm 13 mps 675 mmHg 13%
    17:00 +36°C° 0 mm 12 mps 675 mmHg 14%
    18:00 +34°C° 0 mm 11 mps 675 mmHg 15%
    19:00 +33°C° 0 mm 10 mps 675 mmHg 16%
    20:00 +32°C° 0 mm 10 mps 675 mmHg 17%
    21:00 +32°C° 0 mm 10 mps 675 mmHg 18%
    22:00 +31°C° 0 mm 10 mps 675 mmHg 19%
    23:00 +29°C° 0 mm 10 mps 675 mmHg 20%

    3 July, Monday

    Time Temperature Precipitation Wind Pressure Humidity
    00:00 +29°C° 0 mm 9 mps 675 mmHg 21%
    01:00 +28°C° 0 mm 9 mps 675 mmHg 23%
    02:00 +27°C° 0 mm 8 mps 674 mmHg 23%
    03:00 +27°C° 0 mm 8 mps 674 mmHg 23%
    04:00 +26°C° 0 mm 7 mps 674 mmHg 24%
    05:00 +27°C° 0 mm 8 mps 675 mmHg 22%
    06:00 +28°C° 0 mm 9 mps 675 mmHg 21%
    07:00 +29°C° 0 mm 10 mps 675 mmHg 19%
    08:00 +32°C° 0 mm 11 mps 676 mmHg 17%
    09:00 +33°C° 0 mm 11 mps 676 mmHg 16%
    10:00 +34°C° 0 mm 12 mps 676 mmHg 14%
    11:00 +36°C° 0 mm 12 mps 675 mmHg 13%
    12:00 +37°C° 0 mm 11 mps 675 mmHg 12%
    13:00 +38°C° 0 mm 11 mps 675 mmHg 11%
    14:00 +38°C° 0 mm 11 mps 675 mmHg 11%
    15:00 +38°C° 0 mm 11 mps 675 mmHg 11%
    16:00 +38°C° 0 mm 11 mps 674 mmHg 11%
    17:00 +36°C° 0 mm 10 mps 674 mmHg 11%
    18:00 +34°C° 0 mm 10 mps 674 mmHg 12%
    19:00 +33°C° 0 mm 9 mps 674 mmHg 13%
    20:00 +32°C° 0 mm 9 mps 674 mmHg 13%
    21:00 +32°C° 0 mm 8 mps 674 mmHg 14%
    22:00 +31°C° 0 mm 8 mps 674 mmHg 14%
    23:00 +29°C° 0 mm 7 mps 674 mmHg 15%

    4 July, Tuesday

    Time Temperature Precipitation Wind Pressure Humidity
    00:00 +28°C° 0 mm 6 mps 674 mmHg 16%
    01:00 +28°C° 0 mm 6 mps 673 mmHg 17%
    02:00 +27°C° 0 mm 6 mps 673 mmHg 18%
    03:00 +26°C° 0 mm 5 mps 673 mmHg 19%
    04:00 +26°C° 0 mm 5 mps 673 mmHg 20%
    05:00 +27°C° 0 mm 6 mps 673 mmHg 19%
    06:00 +28°C° 0 mm 6 mps 674 mmHg 19%
    07:00 +29°C° 0 mm 6 mps 674 mmHg 18%
    08:00 +32°C° 0 mm 7 mps 674 mmHg 16%
    09:00 +34°C° 0 mm 9 mps 675 mmHg 15%
    10:00 +37°C° 0 mm 10 mps 675 mmHg 13%
    11:00 +37°C° 0 mm 10 mps 675 mmHg 13%
    12:00 +38°C° 0 mm 10 mps 675 mmHg 12%
    13:00 +39°C° 0 mm 10 mps 675 mmHg 11%
    14:00 +39°C° 0 mm 10 mps 674 mmHg 10%
    15:00 +39°C° 0 mm 10 mps 674 mmHg 10%
    16:00 +39°C° 0 mm 10 mps 674 mmHg 9%
    17:00 +38°C° 0 mm 9 mps 674 mmHg 10%
    18:00 +37°C° 0 mm 8 mps 674 mmHg 11%
    19:00 +34°C° 0 mm 7 mps 674 mmHg 11%
    20:00 +34°C° 0 mm 7 mps 674 mmHg 12%
    21:00 +33°C° 0 mm 6 mps 674 mmHg 13%
    22:00 +32°C° 0 mm 6 mps 674 mmHg 15%
    23:00 +30°C° 0 mm 5 mps 674 mmHg 16%
    Show more